Wind_Speed
39 34 39 21 24 25 26 27 32 35 37 40 36 36 37 39 39 38 38 37 41 44 38 40 41 39 36 37 38 41 39 37 33 35 37 36 35 36 36 36 34 34 33
22 22 32 28 25 29 26 31 35 36 39 51 43 42 44 44 43 43 45 45 44 44 34 34 37 38 38 38 39 39 40 40 38 31 34 41 42 43 43 43 43 41 38
40 36 31 30 31 34 37 38 38 40 41 43 42 45 48 46 45 44 43 42 43 43 42 40 42 43 43 45 45 44 46 46 48 46 45 48 46 48 48 49 50 50 46
38 37 40 42 42 43 41 41 45 46 48 48 47 47 48 49 48 47 45 45 45 48 50 49 53 52 51 50 51 53 52 50 54 56 55 56 54 52 54 53 54 56 58
45 44 41 40 41 44 48 46 46 48 50 50 51 49 50 46 49 51 51 49 49 50 50 52 54 54 55 57 58 58 58 56 56 58 61 62 62 61 59 57 57 56 59
48 48 48 48 46 44 44 44 44 47 43 45 45 47 52 52 52 49 52 53 54 54 53 54 55 57 57 58 61 62 64 64 63 64 64 65 65 66 67 67 64 61 59
49 49 48 45 43 43 44 45 42 44 43 48 49 49 52 49 53 55 54 52 53 54 56 57 57 57 59 60 63 65 67 66 65 65 65 65 67 69 70 72 73 70 67
45 44 44 45 47 46 44 44 46 47 51 52 57 60 60 60 57 56 52 49 49 49 50 53 53 54 56 59 60 61 62 64 67 68 69 68 68 69 71 72 72 72 73
40 40 41 43 46 46 47 47 48 49 52 55 55 55 56 56 54 51 50 47 47 47 50 52 54 57 61 63 63 63 63 65 68 67 66 67 68 69 70 70 70 71 72
32 35 40 44 44 44 45 48 51 55 58 57 56 55 52 48 46 44 43 43 45 48 52 55 57 58 59 61 63 60 55 50 48 48 52 53 54 55 54 56 57 58 64
31 31 34 35 35 36 40 48 51 51 51 48 49 46 44 43 43 43 43 44 47 49 51 50 49 47 47 48 54 53 48 45 46 47 50 50 50 52 52 51 52 52 50
33 36 37 35 34 36 38 41 44 41 39 39 40 40 39 40 41 42 40 41 44 44 43 42 39 37 37 34 38 44 45 45 42 40 34 36 37 40 43 44 45 47 54
36 38 36 32 31 30 32 34 36 34 32 30 33 34 36 36 37 37 36 37 37 34 34 34 33 32 32 30 29 29 33 35 37 37 36 36 36 38 39 41 44 47 50
34 31 28 26 26 26 27 28 29 29 28 25 24 26 26 28 30 29 27 28 28 27 30 32 33 32 32 29 28 26 23 25 26 29 33 37 37 37 40 43 48 52 56
22 22 22 23 23 25 25 27 27 26 23 21 20 19 18 21 25 23 22 23 24 24 27 28 31 33 35 35 34 32 27 24 22 24 27 31 36 38 40 46 53 52 52
18 18 19 19 20 22 23 24 23 21 20 18 17 18 16 15 17 20 20 22 25 25 27 27 28 30 32 32 31 31 31 31 30 27 27 29 31 30 34 42 44 48 49
18 20 21 23 24 25 26 26 25 26 23 23 24 21 24 22 22 24 24 24 27 27 27 29 30 30 27 29 31 32 30 31 32 34 34 30 29 31 32 34 37 44 40
22 24 25 24 24 23 23 23 22 21 21 24 24 23 26 28 27 29 31 31 33 33 32 32 32 32 30 29 33 36 33 31 30 32 34 35 32 34 32 34 34 34 33
22 22 21 21 21 22 22 22 22 21 20 20 20 23 26 27 27 29 31 32 33 34 36 36 35 34 33 35 34 33 36 34 33 35 36 37 36 33 34 32 29 33 36
21 20 19 20 21 21 21 21 22 24 25 25 26 28 29 29 28 28 32 35 36 36 36 37 37 38 39 39 39 38 37 39 38 36 37 41 39 36 35 32 35 35 39
17 18 19 20 21 21 23 24 26 26 27 28 28 31 32 30 30 32 33 36 38 39 40 41 42 41 41 41 39 40 39 40 41 40 35 34 39 40 33 35 34 35 30
19 20 23 23 25 26 28 30 31 31 32 33 34 34 35 36 35 36 38 40 42 45 47 44 41 41 43 46 46 45 43 42 40 40 38 39 36 37 37 31 34 37 30
20 23 24 27 28 29 30 31 31 32 33 35 38 39 40 40 39 40 42 43 43 45 48 49 49 50 47 47 48 46 45 44 42 41 41 38 40 35 34 32 32 32 29
21 23 24 27 30 32 35 37 38 39 41 45 45 46 47 47 47 41 43 47 50 52 54 53 54 53 45 45 46 45 47 48 45 42 43 43 41 40 34 32 33 33 28
26 27 29 30 32 36 40 42 42 43 48 49 49 53 55 52 51 50 53 53 59 59 60 54 53 48 42 45 46 47 47 46 47 45 45 45 44 41 41 36 30 32 27
30 32 35 37 39 43 45 46 46 50 49 51 51 59 56 59 60 61 53 55 59 60 52 52 52 57 63 62 51 45 43 48 44 53 54 51 48 44 40 37 34 29 27
Wind_Direction
237 240 239 231 252 263 269 273 272 276 287 267 275 270 283 291 285 281 286 287 283 284 284 275 278 276 273 268 268 270 271 276 263 238 245 255 264 267 268 268 265 260 259
276 281 307 311 306 304 298 290 291 292 290 290 294 283 282 283 282 278 281 281 281 279 272 275 272 270 272 273 269 266 265 271 268 255 248 256 258 260 264 266 266 264 257
320 316 310 303 299 298 299 299 296 288 283 282 283 281 281 282 282 280 279 277 275 269 267 276 275 269 275 273 274 274 273 273 269 269 261 260 265 265 264 263 265 263 260
310 309 305 302 299 293 287 283 286 285 285 285 284 280 280 280 279 280 276 273 272 273 273 277 276 275 274 271 272 270 271 270 271 272 269 265 265 264 265 261 260 262 262
303 303 300 296 293 289 288 285 285 282 279 277 277 277 278 270 272 276 276 278 277 276 274 273 274 274 273 273 274 274 274 272 270 269 270 270 270 270 267 263 261 256 258
298 299 298 298 295 289 289 289 288 286 280 281 271 269 274 269 269 276 277 276 278 278 278 278 277 277 276 275 275 275 274 274 272 270 268 267 268 267 268 267 264 260 255
295 296 298 298 296 293 291 289 288 281 280 278 272 269 270 271 277 280 279 278 277 278 277 277 277 278 278 277 276 276 275 276 277 275 271 269 266 265 263 262 264 262 258
297 299 298 297 296 295 293 290 286 281 277 272 270 275 276 278 279 279 279 280 279 280 279 279 280 280 281 280 279 277 277 279 278 277 276 274 270 266 264 261 260 259 259
299 299 300 300 299 299 299 298 294 290 285 281 277 275 273 273 275 277 278 280 280 281 282 283 283 282 282 280 279 279 278 278 278 278 276 274 272 269 267 264 261 257 257
302 304 304 300 298 300 300 300 297 292 283 278 273 271 271 273 276 278 280 281 281 282 284 284 284 286 288 289 289 288 285 281 281 280 278 275 273 272 270 269 268 267 263
299 303 307 304 303 302 302 303 307 301 289 278 273 274 274 276 277 278 278 278 279 280 282 285 286 288 292 296 298 298 294 291 285 284 275 271 272 270 269 268 268 270 269
299 305 308 308 302 304 310 320 318 309 302 285 274 273 273 274 275 274 273 276 278 281 282 285 287 290 291 294 300 301 298 289 284 285 282 274 273 272 270 272 274 273 274
305 306 306 306 308 313 319 326 325 316 310 302 286 277 273 271 271 270 275 277 279 282 284 286 287 289 291 292 305 310 300 296 291 281 280 275 274 270 270 274 278 279 279
305 304 306 311 314 318 328 332 333 325 313 305 295 286 284 283 285 286 281 280 282 286 287 291 289 288 294 296 300 304 318 309 304 298 284 277 275 271 279 282 286 289 284
317 317 314 313 316 317 326 326 329 329 325 319 312 305 300 295 288 285 282 287 288 285 283 286 288 293 297 302 304 301 310 316 321 311 305 291 275 277 285 288 287 286 285
327 332 334 333 332 334 338 336 334 334 331 325 314 306 300 301 301 302 302 301 294 292 291 291 295 302 305 304 304 304 309 316 318 320 320 308 299 300 298 295 293 291 293
328 330 328 327 328 329 327 325 323 323 324 319 317 313 315 323 317 313 309 307 303 303 304 303 302 303 303 306 309 312 314 316 317 317 313 318 318 306 293 299 295 304 307
323 323 322 322 324 325 324 323 325 327 325 323 323 323 321 319 318 312 309 311 311 311 309 307 308 306 305 306 307 308 310 316 317 317 315 315 314 320 307 306 303 305 296
322 324 326 326 326 325 323 325 328 330 327 323 321 320 317 317 315 311 312 313 312 313 311 308 303 300 296 299 302 302 304 307 310 313 314 317 318 314 319 317 303 297 298
321 322 326 326 327 325 324 325 323 322 320 316 314 315 316 318 317 313 313 312 314 315 314 311 308 305 302 299 297 296 295 299 303 307 310 312 315 315 310 316 311 294 291
319 319 319 319 324 324 323 322 318 315 320 321 316 312 309 311 312 312 311 312 313 313 313 313 313 311 308 302 298 295 294 295 300 302 303 310 312 312 308 308 312 312 299
319 321 322 324 328 326 326 326 325 323 320 319 316 312 309 308 307 306 303 304 306 307 307 307 310 311 308 303 300 298 295 293 295 296 298 300 306 308 309 305 304 316 305
316 319 322 325 328 327 327 325 323 322 319 317 315 312 307 303 300 302 301 300 300 299 296 296 296 302 300 298 296 294 291 291 290 289 289 290 297 300 303 305 301 311 310
318 319 317 316 316 317 318 319 317 317 317 317 316 314 312 305 301 307 312 305 298 295 296 298 296 294 294 293 293 294 294 289 284 284 286 287 288 292 297 299 299 303 313
323 321 318 315 314 316 316 316 313 313 317 317 318 320 312 308 300 293 303 309 308 301 297 291 291 289 287 291 293 293 289 286 283 279 281 282 284 287 291 295 290 293 299
323 323 322 318 317 319 321 318 316 317 311 312 313 317 310 303 303 298 300 297 301 306 298 293 287 290 288 291 285 277 273 274 269 273 279 277 278 283 283 285 282 280 292
Height
5874 5873 5876 5866 5880 5881 5881 5880 5881 5881 5880 5880 5880 5878 5876 5877 5878 5875 5874 5874 5873 5872 5870 5871 5871 5869 5869 5869 5868 5868 5868 5868 5871 5876 5874 5873 5872 5871 5871 5871 5873 5873 5875
5852 5854 5864 5868 5871 5873 5876 5876 5873 5871 5872 5870 5870 5868 5866 5866 5866 5866 5865 5864 5864 5862 5860 5859 5859 5859 5858 5857 5857 5857 5856 5856 5857 5862 5865 5863 5863 5861 5860 5860 5861 5862 5863
5856 5861 5863 5867 5868 5867 5865 5864 5863 5861 5860 5860 5859 5858 5856 5855 5854 5854 5853 5852 5851 5850 5849 5848 5847 5847 5846 5845 5844 5845 5844 5844 5844 5845 5850 5851 5850 5848 5850 5849 5849 5849 5849
5849 5851 5853 5855 5855 5855 5853 5853 5851 5849 5847 5845 5845 5845 5844 5844 5842 5841 5840 5839 5837 5836 5835 5834 5834 5833 5831 5831 5831 5830 5830 5830 5830 5829 5830 5832 5833 5834 5833 5835 5836 5834 5836
5845 5845 5846 5845 5845 5843 5841 5840 5836 5834 5833 5832 5830 5830 5830 5829 5828 5828 5827 5825 5824 5823 5820 5818 5816 5815 5814 5814 5813 5813 5813 5813 5814 5813 5813 5812 5813 5813 5815 5816 5817 5821 5820
5836 5834 5832 5830 5829 5828 5827 5825 5823 5819 5818 5817 5817 5816 5814 5814 5814 5814 5813 5811 5809 5807 5806 5803 5801 5799 5799 5798 5796 5794 5793 5793 5794 5794 5794 5793 5794 5792 5793 5795 5798 5800 5805
5828 5824 5820 5817 5815 5814 5812 5811 5809 5808 5806 5805 5803 5802 5801 5799 5799 5798 5797 5796 5795 5791 5790 5787 5785 5782 5781 5780 5778 5775 5774 5773 5772 5770 5772 5772 5771 5770 5771 5772 5773 5777 5782
5816 5813 5811 5809 5807 5804 5802 5800 5797 5795 5793 5791 5790 5787 5786 5784 5783 5782 5781 5781 5779 5775 5772 5771 5769 5767 5764 5761 5760 5757 5756 5754 5750 5748 5747 5746 5745 5745 5745 5747 5750 5753 5757
5806 5804 5800 5796 5793 5791 5787 5785 5783 5781 5777 5775 5772 5770 5770 5769 5767 5767 5767 5766 5764 5761 5758 5755 5753 5751 5747 5744 5740 5739 5737 5735 5731 5727 5725 5722 5720 5721 5719 5722 5726 5728 5734
5797 5793 5789 5786 5783 5778 5775 5772 5767 5763 5759 5755 5753 5753 5753 5753 5752 5751 5751 5751 5748 5747 5745 5742 5738 5735 5731 5726 5722 5720 5717 5715 5713 5709 5705 5703 5701 5700 5700 5700 5702 5707 5710
5790 5787 5785 5781 5776 5771 5767 5760 5753 5745 5740 5737 5737 5738 5738 5738 5739 5738 5738 5738 5737 5735 5733 5730 5726 5722 5718 5712 5705 5701 5698 5696 5696 5692 5690 5687 5686 5684 5684 5685 5686 5688 5690
5783 5780 5775 5771 5766 5762 5756 5747 5740 5733 5728 5725 5725 5727 5727 5727 5727 5727 5727 5726 5725 5722 5719 5717 5715 5712 5708 5702 5695 5689 5684 5681 5679 5678 5675 5674 5673 5671 5671 5671 5671 5672 5673
5774 5770 5765 5760 5756 5751 5746 5739 5734 5727 5722 5719 5718 5718 5719 5718 5717 5716 5716 5714 5712 5711 5708 5705 5703 5701 5698 5694 5689 5681 5674 5670 5666 5664 5663 5662 5661 5660 5659 5658 5656 5655 5655
5764 5760 5756 5753 5749 5745 5741 5736 5730 5724 5720 5716 5714 5712 5711 5710 5709 5708 5706 5704 5703 5701 5698 5696 5693 5691 5687 5684 5680 5676 5669 5662 5657 5654 5651 5648 5646 5645 5644 5642 5640 5636 5635
5758 5754 5751 5748 5744 5741 5735 5731 5726 5722 5718 5713 5710 5708 5706 5705 5702 5700 5699 5697 5695 5694 5691 5689 5685 5682 5679 5673 5669 5665 5660 5655 5649 5643 5639 5637 5635 5633 5630 5626 5622 5618 5616
5753 5750 5746 5743 5740 5736 5731 5727 5723 5720 5716 5712 5708 5705 5703 5700 5697 5695 5692 5689 5688 5687 5684 5681 5677 5673 5668 5664 5660 5655 5647 5642 5638 5633 5629 5624 5622 5619 5616 5612 5608 5603 5597
5749 5746 5742 5739 5735 5731 5728 5724 5720 5714 5711 5708 5704 5700 5696 5693 5690 5687 5685 5682 5678 5676 5674 5670 5667 5663 5658 5653 5649 5644 5640 5634 5630 5625 5621 5617 5613 5609 5605 5601 5596 5590 5583
5745 5741 5738 5734 5730 5727 5723 5719 5716 5712 5707 5702 5698 5695 5690 5687 5683 5680 5676 5673 5669 5665 5662 5659 5656 5652 5648 5644 5640 5635 5630 5626 5622 5618 5614 5610 5605 5599 5594 5589 5584 5578 5570
5740 5737 5733 5730 5727 5723 5719 5715 5711 5707 5703 5699 5695 5690 5685 5681 5677 5673 5669 5666 5662 5658 5653 5649 5645 5642 5637 5633 5630 5626 5622 5618 5613 5609 5605 5600 5596 5591 5585 5579 5574 5569 5564
5736 5733 5730 5727 5723 5719 5715 5710 5706 5702 5698 5694 5690 5685 5681 5676 5672 5666 5661 5657 5653 5649 5645 5640 5636 5631 5627 5624 5620 5616 5613 5609 5605 5601 5596 5590 5586 5582 5576 5571 5566 5561 5557
5733 5730 5727 5724 5719 5714 5709 5705 5700 5696 5692 5688 5683 5678 5673 5668 5664 5658 5653 5648 5643 5639 5635 5630 5626 5622 5617 5613 5609 5605 5601 5599 5595 5591 5587 5582 5576 5572 5569 5562 5557 5551 5547
5730 5726 5722 5717 5713 5708 5704 5699 5694 5690 5685 5681 5677 5672 5665 5660 5655 5651 5646 5641 5635 5630 5624 5619 5614 5610 5605 5600 5596 5593 5590 5587 5584 5580 5576 5572 5569 5563 5559 5556 5550 5545 5540
5725 5721 5716 5712 5707 5703 5698 5693 5688 5683 5679 5673 5668 5662 5657 5651 5644 5639 5633 5627 5622 5618 5612 5606 5602 5598 5592 5587 5581 5578 5576 5574 5572 5569 5565 5562 5558 5556 5551 5547 5544 5539 5535
5718 5714 5710 5705 5701 5696 5691 5686 5680 5674 5668 5663 5657 5651 5645 5639 5633 5627 5621 5615 5610 5603 5598 5592 5586 5582 5577 5572 5567 5562 5560 5559 5557 5555 5552 5550 5548 5544 5543 5539 5535 5532 5529
5712 5708 5703 5699 5694 5689 5684 5678 5672 5665 5658 5651 5644 5638 5630 5623 5617 5611 5604 5597 5591 5585 5578 5573 5568 5564 5560 5556 5552 5548 5544 5541 5540 5539 5537 5536 5535 5533 5530 5530 5527 5524 5522
5706 5702 5697 5692 5686 5680 5673 5666 5660 5653 5645 5638 5630 5622 5615 5608 5600 5594 5585 5578 5572 5566 5559 5553 5548 5544 5539 5534 5531 5528 5525 5523 5520 5520 5519 5519 5520 5519 5518 5517 5518 5515 5513